ACA317 CYUL-CYYC

Flight info

Callsign ACA317
Flight time N/A
Altitude 40000
Route KESKA DCT BIPKO DCT IPSAK DCT OMEGI DCT RADEN DCT 48N080W DCT MISAX DCT 5130N10000W DCT GUDOG DCT BIRKO BIRKO6
Aircraft A333/H-SDE3GHIJ2J3J5M1RVWXY/LB2D1

Departure

Time N/A
Airport Montreal / Pierre Elliott Trudeau International Airport (CYUL)

Arrival

Time 2026-05-03 21:53
Airport Calgary International Airport (CYYC)
Time Latitude Longitude Altitude Speed Heading
2026-05-03 20:15 51.36013 -97.84811 40472 ft 453 kts 279°
2026-05-03 20:15 51.36754 -97.94827 40477 ft 453 kts 279°
2026-05-03 20:16 51.37487 -98.04852 40474 ft 453 kts 278°
2026-05-03 20:16 51.38213 -98.14886 40598 ft 454 kts 278°
2026-05-03 20:16 51.38573 -98.19913 40765 ft 453 kts 278°
2026-05-03 20:17 51.38926 -98.24877 40928 ft 454 kts 278°
2026-05-03 20:17 51.39636 -98.34942 40978 ft 455 kts 278°
2026-05-03 20:18 51.40336 -98.45011 40966 ft 454 kts 278°
2026-05-03 20:18 51.41027 -98.55071 40954 ft 454 kts 278°
2026-05-03 20:19 51.41711 -98.65153 40943 ft 454 kts 278°
2026-05-03 20:19 51.42380 -98.75152 40956 ft 454 kts 278°
2026-05-03 20:20 51.43045 -98.85212 40946 ft 454 kts 278°
2026-05-03 20:20 51.43701 -98.95282 40944 ft 454 kts 278°
2026-05-03 20:21 51.44351 -99.05382 40953 ft 454 kts 278°
2026-05-03 20:21 51.44986 -99.15394 40953 ft 454 kts 278°
2026-05-03 20:22 51.45618 -99.25486 40949 ft 455 kts 278°
2026-05-03 20:22 51.46242 -99.35596 40933 ft 455 kts 278°
2026-05-03 20:23 51.46858 -99.45725 40934 ft 456 kts 277°
2026-05-03 20:23 51.47461 -99.55786 40937 ft 455 kts 277°
2026-05-03 20:24 51.48060 -99.65933 40936 ft 455 kts 277°
2026-05-03 20:24 51.48646 -99.76002 40944 ft 455 kts 277°
2026-05-03 20:25 51.49227 -99.86126 40940 ft 455 kts 277°
2026-05-03 20:25 51.49799 -99.96245 40938 ft 455 kts 277°
2026-05-03 20:26 51.50315 -100.06373 40946 ft 455 kts 276°
2026-05-03 20:26 51.50749 -100.16529 40936 ft 455 kts 276°
2026-05-03 20:27 51.51163 -100.26617 40961 ft 454 kts 276°
2026-05-03 20:27 51.51578 -100.36744 40962 ft 454 kts 276°
2026-05-03 20:28 51.51990 -100.46856 40980 ft 454 kts 276°
2026-05-03 20:28 51.52394 -100.56988 40972 ft 454 kts 276°
2026-05-03 20:29 51.52790 -100.67116 40977 ft 454 kts 276°
2026-05-03 20:29 51.53175 -100.77228 40989 ft 453 kts 276°
2026-05-03 20:30 51.53552 -100.87330 41010 ft 453 kts 276°
2026-05-03 20:30 51.53917 -100.97361 41012 ft 454 kts 276°
2026-05-03 20:31 51.54279 -101.07527 41025 ft 456 kts 276°
2026-05-03 20:31 51.54632 -101.17690 41015 ft 456 kts 276°
2026-05-03 20:32 51.54976 -101.27894 41039 ft 457 kts 276°
2026-05-03 20:32 51.55309 -101.38030 41040 ft 457 kts 276°
2026-05-03 20:33 51.55637 -101.48263 41053 ft 457 kts 276°
2026-05-03 20:33 51.55956 -101.58512 41057 ft 457 kts 276°
2026-05-03 20:34 51.56263 -101.68658 41058 ft 456 kts 276°
2026-05-03 20:34 51.56561 -101.78828 41064 ft 454 kts 276°
2026-05-03 20:35 51.56851 -101.88989 41076 ft 454 kts 276°
2026-05-03 20:35 51.57132 -101.99133 41081 ft 454 kts 276°
2026-05-03 20:36 51.57403 -102.09223 41086 ft 454 kts 276°
2026-05-03 20:36 51.57665 -102.19352 41087 ft 452 kts 275°
2026-05-03 20:37 51.57917 -102.29434 41098 ft 450 kts 275°
2026-05-03 20:37 51.58160 -102.39499 41099 ft 450 kts 275°
2026-05-03 20:38 51.58356 -102.47846 41105 ft 450 kts 275°
2026-05-03 20:38 51.58584 -102.57914 41102 ft 450 kts 275°
2026-05-03 20:39 51.58836 -102.69584 41114 ft 448 kts 275°
2026-05-03 20:39 51.59043 -102.79583 41120 ft 447 kts 275°
2026-05-03 20:40 51.59210 -102.87924 41126 ft 448 kts 275°
2026-05-03 20:40 51.59403 -102.97951 41126 ft 449 kts 275°
2026-05-03 20:41 51.59587 -103.07987 41133 ft 449 kts 275°
2026-05-03 20:41 51.59762 -103.18021 41131 ft 448 kts 275°
2026-05-03 20:42 51.59927 -103.28021 41145 ft 446 kts 275°
2026-05-03 20:42 51.60085 -103.38007 41146 ft 446 kts 275°
2026-05-03 20:43 51.60234 -103.47949 41154 ft 447 kts 275°
2026-05-03 20:43 51.60375 -103.57941 41151 ft 447 kts 275°
2026-05-03 20:44 51.60507 -103.67937 41160 ft 445 kts 275°
2026-05-03 20:44 51.60629 -103.77826 41161 ft 444 kts 275°
2026-05-03 20:45 51.60745 -103.87752 41166 ft 443 kts 275°
2026-05-03 20:45 51.60852 -103.97675 41166 ft 443 kts 274°
2026-05-03 20:46 51.60951 -104.07588 41170 ft 443 kts 274°
2026-05-03 20:46 51.61042 -104.17520 41169 ft 443 kts 274°
2026-05-03 20:47 51.61124 -104.27442 41166 ft 443 kts 274°
2026-05-03 20:47 51.61198 -104.37356 41167 ft 443 kts 274°
2026-05-03 20:48 51.61263 -104.47292 41167 ft 443 kts 274°
2026-05-03 20:48 51.61320 -104.57154 41166 ft 443 kts 274°
2026-05-03 20:49 51.61369 -104.67089 41162 ft 443 kts 274°
2026-05-03 20:49 51.61408 -104.77020 41163 ft 442 kts 274°
2026-05-03 20:50 51.61440 -104.86846 41157 ft 442 kts 274°
2026-05-03 20:50 51.61464 -104.96738 41153 ft 442 kts 274°
2026-05-03 20:51 51.61479 -105.06640 41151 ft 442 kts 274°
2026-05-03 20:51 51.61486 -105.16530 41143 ft 441 kts 273°
2026-05-03 20:52 51.61483 -105.26359 41145 ft 440 kts 273°
2026-05-03 20:52 51.61473 -105.36221 41145 ft 440 kts 273°
2026-05-03 20:53 51.61455 -105.46066 41144 ft 440 kts 273°
2026-05-03 20:53 51.61429 -105.55868 41148 ft 440 kts 273°
2026-05-03 20:54 51.61394 -105.65708 41150 ft 440 kts 273°
2026-05-03 20:54 51.61327 -105.80469 41156 ft 440 kts 272°
2026-05-03 20:55 51.61271 -105.90324 41161 ft 440 kts 272°
2026-05-03 20:55 51.61208 -106.00168 41161 ft 440 kts 272°
2026-05-03 20:56 51.61136 -106.10006 41172 ft 440 kts 272°
2026-05-03 20:56 51.61056 -106.19783 41178 ft 440 kts 272°
2026-05-03 20:57 51.60967 -106.29623 41188 ft 440 kts 272°
2026-05-03 20:57 51.60870 -106.39465 41192 ft 440 kts 272°
2026-05-03 20:58 51.60765 -106.49316 41189 ft 440 kts 272°
2026-05-03 20:58 51.60651 -106.59162 41190 ft 441 kts 272°
2026-05-03 20:59 51.60529 -106.69034 41190 ft 441 kts 272°
2026-05-03 20:59 51.60399 -106.78920 41196 ft 441 kts 272°
2026-05-03 21:00 51.60284 -106.87124 41202 ft 441 kts 272°
2026-05-03 21:00 51.60114 -106.98600 41200 ft 441 kts 272°
2026-05-03 21:01 51.59959 -107.08467 41212 ft 441 kts 272°
2026-05-03 21:01 51.59795 -107.18350 41201 ft 442 kts 272°
2026-05-03 21:02 51.59623 -107.28258 41209 ft 443 kts 272°
2026-05-03 21:02 51.59439 -107.38179 41208 ft 443 kts 273°
2026-05-03 21:03 51.59223 -107.48048 41217 ft 443 kts 271°
2026-05-03 21:03 51.59038 -107.57960 41217 ft 443 kts 272°
2026-05-03 21:04 51.58848 -107.67889 41213 ft 444 kts 271°
2026-05-03 21:04 51.58639 -107.77835 41216 ft 445 kts 271°
2026-05-03 21:05 51.58418 -107.87730 41237 ft 445 kts 271°
2026-05-03 21:05 51.58187 -107.97686 41224 ft 445 kts 271°
2026-05-03 21:06 51.57944 -108.07624 41144 ft 443 kts 271°
2026-05-03 21:06 51.57821 -108.12581 40847 ft 442 kts 271°
2026-05-03 21:06 51.57698 -108.17525 40738 ft 443 kts 271°
2026-05-03 21:07 51.57445 -108.27419 40755 ft 443 kts 271°
2026-05-03 21:07 51.57184 -108.37252 40738 ft 442 kts 271°
2026-05-03 21:08 51.56913 -108.47148 40746 ft 442 kts 271°
2026-05-03 21:08 51.56633 -108.57032 40747 ft 442 kts 271°
2026-05-03 21:09 51.56345 -108.66938 40752 ft 443 kts 271°
2026-05-03 21:09 51.56048 -108.76853 40754 ft 445 kts 271°
2026-05-03 21:10 51.55743 -108.86720 40755 ft 445 kts 271°
2026-05-03 21:10 51.55428 -108.96654 40752 ft 445 kts 271°
2026-05-03 21:11 51.55104 -109.06597 40758 ft 445 kts 271°
2026-05-03 21:11 51.54772 -109.16545 40758 ft 445 kts 271°
2026-05-03 21:12 51.54432 -109.26479 40757 ft 445 kts 271°
2026-05-03 21:12 51.54083 -109.36409 40758 ft 445 kts 271°
2026-05-03 21:13 51.53726 -109.46336 40767 ft 445 kts 271°
2026-05-03 21:13 51.53359 -109.56239 40523 ft 442 kts 271°
2026-05-03 21:14 51.53177 -109.61103 40249 ft 440 kts 271°
2026-05-03 21:14 51.52991 -109.66003 40011 ft 439 kts 271°
2026-05-03 21:14 51.52803 -109.70893 39777 ft 436 kts 271°
2026-05-03 21:14 51.52615 -109.75739 39537 ft 432 kts 271°
2026-05-03 21:15 51.52427 -109.80531 39306 ft 429 kts 271°
2026-05-03 21:15 51.52238 -109.85290 39091 ft 425 kts 271°
2026-05-03 21:15 51.52049 -109.90005 38858 ft 421 kts 271°
2026-05-03 21:15 51.51860 -109.94678 38625 ft 417 kts 271°
2026-05-03 21:16 51.51683 -109.99305 38388 ft 413 kts 272°
2026-05-03 21:16 51.51633 -110.03885 38109 ft 408 kts 274°
2026-05-03 21:16 51.51634 -110.08415 37836 ft 404 kts 275°
2026-05-03 21:16 51.51642 -110.12920 37486 ft 401 kts 275°
2026-05-03 21:17 51.51647 -110.17381 37220 ft 399 kts 276°
2026-05-03 21:17 51.51649 -110.20333 37045 ft 397 kts 276°
2026-05-03 21:17 51.51647 -110.26240 36695 ft 393 kts 276°
2026-05-03 21:17 51.51643 -110.30556 36432 ft 389 kts 276°
2026-05-03 21:18 51.51638 -110.34895 36167 ft 386 kts 276°
2026-05-03 21:18 51.51630 -110.39184 35909 ft 382 kts 276°
2026-05-03 21:18 51.51621 -110.43442 35664 ft 378 kts 276°
2026-05-03 21:18 51.51611 -110.47598 35412 ft 375 kts 277°
2026-05-03 21:19 51.51599 -110.51821 35160 ft 371 kts 277°
2026-05-03 21:19 51.51591 -110.54219 35016 ft 369 kts 277°
2026-05-03 21:19 51.51581 -110.57478 34825 ft 367 kts 277°
2026-05-03 21:19 51.51566 -110.61504 34575 ft 363 kts 277°
2026-05-03 21:20 51.51550 -110.65540 34304 ft 361 kts 277°
2026-05-03 21:20 51.51534 -110.69580 34064 ft 360 kts 277°
2026-05-03 21:20 51.51515 -110.73592 33822 ft 358 kts 277°
2026-05-03 21:20 51.51495 -110.77579 33548 ft 355 kts 277°
2026-05-03 21:21 51.51474 -110.81530 33274 ft 353 kts 277°
2026-05-03 21:21 51.51452 -110.85469 33019 ft 352 kts 277°
2026-05-03 21:21 51.51429 -110.89397 32741 ft 351 kts 277°
2026-05-03 21:21 51.51405 -110.93314 32476 ft 350 kts 277°
2026-05-03 21:22 51.51379 -110.97206 32209 ft 348 kts 277°
2026-05-03 21:22 51.51352 -111.01090 31943 ft 347 kts 277°
2026-05-03 21:22 51.51324 -111.04920 31706 ft 346 kts 277°
2026-05-03 21:22 51.51305 -111.07527 31522 ft 345 kts 277°
2026-05-03 21:23 51.51265 -111.12623 31198 ft 344 kts 277°
2026-05-03 21:23 51.51233 -111.16470 30894 ft 345 kts 276°
2026-05-03 21:23 51.51202 -111.20338 30655 ft 347 kts 276°
2026-05-03 21:23 51.51167 -111.24212 30419 ft 347 kts 276°
2026-05-03 21:24 51.51144 -111.26769 30256 ft 346 kts 276°
2026-05-03 21:24 51.51106 -111.30630 30012 ft 345 kts 276°
2026-05-03 21:24 51.51067 -111.34482 29740 ft 344 kts 276°
2026-05-03 21:24 51.51028 -111.38319 29455 ft 343 kts 276°
2026-05-03 21:25 51.50988 -111.42134 29169 ft 341 kts 276°
2026-05-03 21:25 51.50947 -111.45933 28901 ft 339 kts 276°
2026-05-03 21:25 51.50904 -111.49720 28619 ft 337 kts 276°
2026-05-03 21:25 51.50862 -111.53468 28342 ft 336 kts 276°
2026-05-03 21:26 51.50817 -111.57216 28081 ft 334 kts 276°
2026-05-03 21:26 51.50773 -111.60932 27812 ft 333 kts 276°
2026-05-03 21:26 51.50727 -111.64638 27499 ft 331 kts 276°
2026-05-03 21:26 51.50681 -111.68327 27235 ft 331 kts 275°
2026-05-03 21:27 51.50634 -111.72033 26972 ft 332 kts 275°
2026-05-03 21:27 51.50585 -111.75683 26719 ft 331 kts 275°
2026-05-03 21:27 51.50534 -111.79371 26454 ft 329 kts 275°
2026-05-03 21:27 51.50482 -111.83059 26210 ft 328 kts 275°
2026-05-03 21:28 51.50429 -111.86704 25955 ft 326 kts 275°
2026-05-03 21:28 51.50376 -111.90345 25712 ft 325 kts 275°
2026-05-03 21:28 51.50323 -111.93925 25466 ft 324 kts 275°
2026-05-03 21:28 51.50268 -111.97526 25222 ft 322 kts 275°
2026-05-03 21:29 51.50212 -112.01120 24978 ft 321 kts 275°
2026-05-03 21:29 51.50156 -112.04693 24739 ft 319 kts 275°
2026-05-03 21:29 51.50099 -112.08255 24497 ft 318 kts 275°
2026-05-03 21:29 51.50040 -112.11803 24260 ft 317 kts 275°
2026-05-03 21:30 51.49981 -112.15334 24022 ft 316 kts 275°
2026-05-03 21:30 51.49922 -112.18853 23759 ft 316 kts 275°
2026-05-03 21:30 51.49862 -112.22386 23531 ft 316 kts 275°
2026-05-03 21:30 51.49800 -112.25901 23268 ft 315 kts 275°
2026-05-03 21:31 51.49736 -112.29422 22983 ft 314 kts 275°
2026-05-03 21:31 51.49672 -112.32912 22720 ft 312 kts 275°
2026-05-03 21:31 51.49609 -112.36347 22463 ft 311 kts 275°
2026-05-03 21:31 51.49543 -112.39812 22186 ft 310 kts 275°
2026-05-03 21:32 51.49477 -112.43263 21923 ft 308 kts 275°
2026-05-03 21:32 51.49411 -112.46691 21663 ft 307 kts 275°
2026-05-03 21:32 51.49344 -112.50110 21395 ft 306 kts 275°
2026-05-03 21:32 51.49275 -112.53530 21140 ft 305 kts 275°
2026-05-03 21:33 51.49207 -112.56926 20884 ft 304 kts 275°
2026-05-03 21:33 51.49137 -112.60307 20627 ft 302 kts 275°
2026-05-03 21:33 51.49067 -112.63651 20386 ft 301 kts 275°
2026-05-03 21:33 51.48996 -112.67007 20103 ft 300 kts 275°
2026-05-03 21:34 51.48925 -112.70363 19865 ft 301 kts 274°
2026-05-03 21:34 51.48853 -112.73721 19613 ft 301 kts 274°
2026-05-03 21:34 51.48779 -112.77073 19375 ft 300 kts 275°
2026-05-03 21:34 51.48706 -112.80378 19138 ft 299 kts 274°
2026-05-03 21:35 51.48630 -112.83713 18907 ft 298 kts 274°
2026-05-03 21:35 51.48556 -112.87024 18675 ft 296 kts 275°
2026-05-03 21:35 51.48481 -112.90324 18446 ft 295 kts 275°
2026-05-03 21:35 51.48405 -112.93537 18221 ft 294 kts 275°
2026-05-03 21:36 51.48327 -112.96808 17960 ft 293 kts 274°
2026-05-03 21:36 51.48248 -113.00067 17692 ft 291 kts 274°
2026-05-03 21:36 51.48170 -113.03303 17428 ft 290 kts 274°
2026-05-03 21:36 51.48090 -113.06526 17168 ft 288 kts 274°
2026-05-03 21:37 51.48011 -113.09728 16915 ft 287 kts 274°
2026-05-03 21:37 51.47932 -113.12923 16651 ft 286 kts 274°
2026-05-03 21:37 51.47852 -113.16112 16398 ft 285 kts 274°
2026-05-03 21:37 51.47770 -113.19291 16109 ft 284 kts 273°
2026-05-03 21:38 51.47675 -113.22426 15861 ft 286 kts 271°
2026-05-03 21:38 51.47305 -113.25584 15611 ft 292 kts 259°
2026-05-03 21:38 51.46409 -113.28558 15366 ft 301 kts 244°
2026-05-03 21:38 51.45133 -113.31249 15127 ft 304 kts 238°
2026-05-03 21:39 51.43773 -113.33851 14883 ft 304 kts 237°
2026-05-03 21:39 51.42412 -113.36427 14655 ft 301 kts 237°
2026-05-03 21:39 51.41062 -113.38995 14445 ft 300 kts 237°
2026-05-03 21:39 51.39723 -113.41553 14121 ft 299 kts 238°
2026-05-03 21:40 51.38396 -113.44091 13769 ft 296 kts 237°
2026-05-03 21:40 51.37080 -113.46612 13376 ft 294 kts 237°
2026-05-03 21:40 51.35774 -113.49113 13011 ft 292 kts 237°
2026-05-03 21:40 51.34478 -113.51602 12653 ft 292 kts 237°
2026-05-03 21:41 51.33153 -113.54157 12300 ft 304 kts 237°
2026-05-03 21:41 51.31788 -113.56776 11906 ft 307 kts 235°
2026-05-03 21:41 51.30414 -113.59406 11546 ft 308 kts 234°
2026-05-03 21:41 51.29052 -113.61998 11173 ft 308 kts 234°
2026-05-03 21:42 51.27679 -113.64612 10825 ft 305 kts 234°
2026-05-03 21:42 51.26344 -113.67149 10722 ft 291 kts 234°
2026-05-03 21:42 51.25070 -113.69567 10617 ft 280 kts 234°
2026-05-03 21:42 51.23836 -113.71912 10508 ft 271 kts 234°
2026-05-03 21:43 51.22637 -113.74191 10316 ft 266 kts 234°
2026-05-03 21:43 51.21455 -113.76447 9984 ft 265 kts 234°
2026-05-03 21:43 51.20273 -113.78693 9672 ft 264 kts 234°
2026-05-03 21:43 51.19094 -113.80935 9384 ft 262 kts 234°
2026-05-03 21:44 51.17873 -113.83030 9277 ft 254 kts 224°
2026-05-03 21:44 51.16365 -113.84444 9189 ft 251 kts 203°
2026-05-03 21:44 51.14654 -113.84897 9083 ft 248 kts 186°
2026-05-03 21:44 51.12959 -113.84938 8967 ft 245 kts 183°
2026-05-03 21:45 51.11242 -113.84915 8730 ft 247 kts 183°
2026-05-03 21:45 51.09519 -113.84893 8457 ft 248 kts 183°
2026-05-03 21:45 51.07780 -113.84876 8181 ft 250 kts 182°
2026-05-03 21:45 51.06024 -113.84868 7998 ft 254 kts 183°
2026-05-03 21:46 51.04261 -113.84867 7901 ft 252 kts 183°
2026-05-03 21:46 51.02526 -113.84869 7805 ft 253 kts 182°
2026-05-03 21:46 51.00761 -113.84867 7687 ft 254 kts 181°
2026-05-03 21:46 50.98991 -113.84868 7590 ft 253 kts 182°
2026-05-03 21:47 50.97218 -113.84879 7500 ft 255 kts 182°
2026-05-03 21:47 50.95443 -113.84925 7384 ft 254 kts 186°
2026-05-03 21:47 50.93783 -113.85685 7305 ft 246 kts 216°
2026-05-03 21:47 50.92683 -113.87621 7221 ft 234 kts 249°
2026-05-03 21:48 50.92269 -113.90065 7136 ft 228 kts 265°
2026-05-03 21:48 50.92058 -113.92524 7059 ft 228 kts 267°
2026-05-03 21:48 50.91867 -113.95031 6964 ft 228 kts 267°
2026-05-03 21:48 50.91827 -113.97513 6874 ft 222 kts 282°
2026-05-03 21:49 50.92334 -113.99762 6788 ft 215 kts 307°
2026-05-03 21:49 50.93482 -114.01217 6718 ft 215 kts 334°
2026-05-03 21:49 50.94888 -114.02023 6473 ft 215 kts 347°
2026-05-03 21:49 50.96376 -114.02233 6159 ft 213 kts 359°
2026-05-03 21:50 50.97829 -114.02146 5872 ft 210 kts 360°
2026-05-03 21:50 50.99296 -114.02137 5587 ft 206 kts 358°
2026-05-03 21:50 51.00719 -114.02156 5174 ft 207 kts 359°
2026-05-03 21:50 51.02116 -114.02148 4966 ft 199 kts 359°
2026-05-03 21:51 51.03474 -114.02135 4804 ft 189 kts 359°
2026-05-03 21:51 51.04756 -114.02141 4563 ft 178 kts 359°
2026-05-03 21:51 51.05960 -114.02139 4330 ft 167 kts 359°
2026-05-03 21:51 51.07082 -114.02136 4095 ft 155 kts
2026-05-03 21:52 51.08135 -114.02136 3912 ft 142 kts
2026-05-03 21:52 51.09118 -114.02146 3825 ft 150 kts
2026-05-03 21:52 51.10158 -114.02151 3619 ft 144 kts
2026-05-03 21:52 51.11109 -114.02131 3555 ft 120 kts
2026-05-03 21:53 51.11764 -114.02128 3550 ft 68 kts 360°
2026-05-03 21:53 51.12155 -114.02121 3553 ft 47 kts
2026-05-03 21:53 51.12351 -114.02031 3547 ft 6 kts 28°
2026-05-03 21:53 51.12395 -114.01993 3545 ft 8 kts 28°
2026-05-03 21:54 51.12406 -114.01983 3545 ft 0 kts 28°
2026-05-03 21:54 51.12407 -114.01983 3545 ft 0 kts 28°
2026-05-03 21:54 51.12414 -114.01976 3547 ft 2 kts 28°
2026-05-03 21:54 51.12434 -114.01957 3547 ft 4 kts 33°
2026-05-03 21:55 51.12465 -114.01925 3546 ft 6 kts 33°
2026-05-03 21:55 51.12507 -114.01883 3543 ft 8 kts 32°
2026-05-03 21:55 51.12556 -114.01834 3544 ft 9 kts 30°
2026-05-03 21:55 51.12616 -114.01797 3544 ft 10 kts 10°
2026-05-03 21:56 51.12689 -114.01795 3545 ft 11 kts 360°
2026-05-03 21:56 51.12771 -114.01796 3545 ft 13 kts 360°
2026-05-03 21:56 51.12864 -114.01796 3542 ft 14 kts
2026-05-03 21:56 51.12894 -114.01768 3541 ft 2 kts 64°
2026-05-03 21:57 51.12901 -114.01743 3545 ft 3 kts 68°
2026-05-03 21:57 51.12911 -114.01708 3543 ft 4 kts 59°
2026-05-03 21:57 51.12932 -114.01683 3540 ft 3 kts 24°
2026-05-03 21:57 51.12959 -114.01681 3544 ft 5 kts
2026-05-03 21:58 51.13028 -114.01684 3540 ft 15 kts 356°
2026-05-03 21:58 51.13130 -114.01715 3541 ft 15 kts 348°
2026-05-03 21:58 51.13207 -114.01706 3540 ft 6 kts 26°
2026-05-03 21:58 51.13247 -114.01682 3543 ft 6 kts 20°
2026-05-03 21:59 51.13263 -114.01661 3539 ft 2 kts 52°